Temperature
-2 -1 -1 -1 -1 -1 -1 -1 -0 0 0 0 -1 -1 -1 -1 -1 -1 -0 -0 0 1 1 1 2 2 2 3 3 3 4 4 4 4 4 4 5 5 5 4 4 5 4 4
-2 -1 -1 -1 -1 -1 -1 -1 -1 -0 -0 -1 -2 -1 -1 -2 -1 -1 -1 -1 -0 0 0 1 1 2 2 3 3 3 3 3 3 4 4 4 4 4 4 4 4 4 4 4
-2 -2 -1 -2 -2 -2 -2 -2 -2 -1 -1 -2 -2 -2 -2 -2 -2 -2 -2 -1 -1 -1 -0 0 1 1 2 2 2 3 3 3 3 3 3 3 3 3 3 3 3 3 3 3
-4 -3 -2 -1 -2 -3 -2 -2 -3 -2 -3 -2 -2 -2 -2 -1 -2 -2 -2 -2 -1 -1 -1 -0 0 1 1 2 2 2 2 2 2 2 2 2 3 3 3 3 3 3 3 3
-4 -4 -3 -2 -2 -3 -3 -3 -3 -3 -3 -3 -2 -3 -2 -1 -2 -2 -2 -2 -1 -1 -1 -1 -0 0 0 1 1 1 1 2 2 2 2 2 2 2 2 2 2 2 2 2
-5 -3 -2 -2 -3 -3 -3 -2 -3 -3 -3 -3 -3 -3 -3 -2 -2 -2 -2 -2 -2 -1 -1 -1 -1 -0 0 0 1 1 1 1 1 1 1 1 2 2 2 2 2 2 2 2
-5 -4 -3 -3 -3 -3 -2 -2 -3 -3 -3 -3 -4 -3 -2 -2 -2 -2 -2 -2 -2 -1 -1 -1 -1 -1 -0 -0 0 0 0 0 0 1 1 1 1 1 1 1 1 1 1 1
-6 -5 -3 -4 -4 -4 -3 -3 -3 -3 -3 -3 -3 -3 -3 -3 -3 -3 -2 -2 -2 -2 -2 -2 -2 -1 -1 -1 -1 -1 -0 -0 -0 -0 -0 -0 -0 0 0 0 1 0 0 0
-5 -4 -4 -4 -3 -3 -3 -3 -3 -3 -3 -3 -3 -3 -3 -3 -3 -3 -3 -3 -2 -2 -2 -2 -2 -2 -1 -1 -1 -1 -1 -1 -1 -1 -1 -1 -1 -0 -0 -0 -0 -0 -0 -0
-7 -5 -5 -4 -3 -3 -3 -3 -3 -3 -3 -3 -3 -3 -4 -3 -3 -3 -3 -3 -3 -3 -3 -2 -2 -2 -2 -2 -2 -2 -2 -2 -1 -1 -2 -1 -1 -1 -1 -1 -1 -1 -1 -1
-7 -6 -5 -4 -3 -3 -3 -3 -3 -3 -3 -3 -4 -4 -4 -4 -4 -4 -4 -3 -3 -3 -3 -3 -3 -3 -3 -3 -2 -2 -2 -2 -2 -2 -2 -2 -2 -2 -2 -1 -1 -1 -1 -1
-5 -4 -5 -4 -2 -3 -3 -3 -3 -4 -4 -4 -4 -4 -4 -4 -4 -4 -4 -4 -4 -4 -4 -3 -3 -3 -3 -3 -3 -3 -3 -2 -2 -2 -2 -2 -2 -2 -2 -2 -2 -2 -2 -2
-3 -3 -3 -3 -3 -3 -4 -4 -4 -4 -4 -4 -4 -4 -4 -4 -4 -4 -4 -4 -4 -4 -4 -4 -4 -4 -3 -3 -3 -3 -3 -3 -3 -3 -3 -3 -3 -3 -3 -3 -3 -3 -3 -3
-4 -4 -4 -4 -4 -4 -4 -4 -4 -4 -4 -4 -4 -4 -4 -4 -5 -5 -5 -5 -5 -5 -5 -4 -4 -4 -4 -4 -4 -4 -3 -3 -3 -3 -3 -3 -3 -3 -3 -3 -3 -3 -3 -3
-4 -4 -4 -4 -4 -4 -4 -5 -5 -5 -5 -5 -5 -5 -5 -5 -5 -5 -5 -5 -5 -5 -5 -5 -5 -4 -4 -4 -4 -4 -4 -4 -4 -4 -4 -4 -4 -4 -4 -4 -3 -3 -3 -3
-4 -4 -5 -5 -5 -5 -5 -5 -5 -5 -5 -5 -5 -5 -5 -5 -5 -5 -5 -5 -5 -5 -5 -5 -5 -5 -5 -5 -4 -4 -4 -4 -4 -4 -4 -4 -4 -4 -4 -4 -4 -4 -4 -4
-5 -5 -5 -5 -5 -5 -5 -5 -5 -5 -5 -5 -5 -5 -5 -5 -5 -5 -5 -5 -5 -6 -6 -6 -5 -5 -5 -5 -5 -5 -5 -4 -4 -5 -5 -5 -4 -4 -4 -4 -4 -4 -4 -4
-4 -4 -4 -4 -5 -5 -5 -5 -5 -5 -5 -5 -6 -6 -6 -6 -6 -6 -6 -6 -6 -6 -6 -6 -6 -6 -5 -5 -5 -5 -5 -5 -5 -5 -5 -5 -5 -5 -5 -5 -5 -5 -4 -4
-4 -4 -4 -5 -5 -5 -5 -5 -5 -6 -6 -6 -6 -6 -6 -6 -6 -6 -6 -6 -6 -6 -6 -6 -6 -6 -6 -6 -6 -6 -5 -5 -5 -5 -5 -5 -5 -5 -5 -5 -5 -5 -5 -5
-4 -4 -5 -5 -5 -6 -6 -6 -6 -6 -6 -6 -6 -6 -6 -6 -6 -6 -6 -6 -6 -6 -7 -7 -6 -6 -6 -6 -6 -6 -6 -6 -6 -6 -6 -6 -6 -6 -6 -5 -5 -5 -5 -5
-4 -5 -5 -5 -6 -6 -6 -6 -6 -6 -6 -6 -6 -6 -6 -7 -7 -7 -7 -7 -7 -7 -7 -7 -7 -7 -7 -7 -6 -6 -6 -6 -6 -6 -6 -6 -6 -6 -6 -6 -6 -6 -6 -6
-5 -5 -5 -6 -6 -6 -6 -6 -6 -6 -7 -7 -7 -7 -7 -7 -7 -7 -7 -7 -7 -7 -7 -7 -7 -7 -7 -7 -7 -7 -6 -6 -6 -6 -6 -6 -6 -6 -6 -6 -6 -6 -6 -6
-5 -5 -6 -6 -6 -6 -6 -7 -7 -7 -7 -7 -7 -7 -7 -7 -7 -7 -7 -7 -7 -8 -7 -7 -7 -7 -7 -7 -7 -7 -7 -7 -7 -7 -6 -6 -6 -6 -6 -6 -6 -6 -6 -6
-5 -5 -6 -6 -7 -7 -7 -7 -7 -7 -7 -7 -7 -7 -7 -7 -7 -8 -8 -8 -8 -8 -8 -8 -7 -7 -7 -7 -7 -7 -7 -7 -7 -7 -7 -7 -6 -6 -6 -6 -6 -6 -6 -6
-5 -6 -6 -6 -7 -7 -7 -7 -7 -7 -7 -7 -7 -8 -8 -8 -8 -8 -8 -8 -8 -8 -8 -8 -8 -8 -7 -7 -7 -7 -7 -7 -7 -7 -7 -7 -7 -7 -7 -7 -7 -7 -6 -7
-6 -6 -6 -6 -7 -7 -7 -7 -7 -7 -7 -8 -8 -8 -8 -8 -8 -8 -8 -8 -8 -8 -8 -8 -8 -8 -8 -8 -8 -7 -7 -7 -7 -7 -7 -7 -7 -7 -7 -7 -7 -7 -7 -7
-6 -6 -6 -7 -7 -7 -7 -7 -8 -8 -8 -8 -8 -8 -8 -8 -8 -8 -8 -8 -8 -8 -8 -8 -8 -8 -8 -8 -8 -8 -8 -7 -7 -7 -7 -7 -7 -7 -7 -7 -7 -7 -7 -7
Wind_Speed
4 4 3 3 4 3 4 5 5 5 5 8 7 5 5 5 5 5 6 6 6 6 6 6 5 5 5 5 4 3 1 1 1 1 1 1 1 2 2 3 5 5 5 4
3 2 2 3 5 4 5 4 5 5 7 6 4 3 4 4 5 5 6 6 6 6 6 6 5 5 5 5 5 3 1 1 0 1 1 1 1 2 3 3 4 5 5 5
3 4 3 4 4 4 3 3 4 6 5 4 5 5 4 5 4 4 5 6 6 6 6 6 6 5 5 5 4 3 2 1 0 1 1 1 2 3 3 3 4 4 4 4
1 4 3 5 1 2 3 4 3 4 5 4 5 6 5 3 2 4 5 6 6 5 5 6 5 5 5 4 4 3 2 1 0 1 1 1 2 2 3 3 3 4 3 3
1 1 6 6 2 1 2 5 3 4 5 5 5 4 3 2 2 3 4 4 5 5 5 5 5 5 4 4 3 3 2 2 0 1 1 1 2 2 3 3 3 3 3 3
2 2 5 5 1 1 1 4 3 2 4 4 3 3 4 4 5 5 5 4 4 5 4 4 5 4 3 3 3 3 3 2 0 1 1 1 1 2 2 3 3 3 3 3
3 4 7 4 2 2 2 5 3 2 3 3 2 4 5 5 5 4 5 5 4 4 4 4 4 3 3 3 3 4 3 2 1 1 1 1 1 2 3 3 4 4 3 2
4 4 7 2 3 4 6 3 2 3 3 3 5 5 5 4 4 4 5 5 4 4 4 4 4 3 3 3 4 3 2 1 1 1 1 2 2 2 3 4 4 4 3 3
7 7 4 3 4 4 2 3 3 3 4 4 4 5 5 4 4 4 4 4 3 3 4 5 4 3 3 4 3 2 1 1 1 1 1 2 2 3 3 3 3 3 3 2
5 8 6 6 5 4 4 4 5 5 4 3 4 5 4 4 4 4 4 4 3 3 4 5 5 4 3 4 2 1 1 1 1 2 2 2 2 2 2 2 3 3 3 3
6 7 6 5 6 6 6 5 5 4 3 4 4 4 4 4 4 3 3 3 3 3 3 4 5 5 4 3 1 1 1 1 1 1 2 2 2 2 2 1 2 3 2 3
8 6 5 6 4 4 4 5 5 4 4 3 3 4 4 3 3 3 3 3 3 3 3 4 4 4 4 3 1 1 1 1 1 1 2 2 2 3 4 3 4 4 4 3
7 5 5 6 4 3 4 5 4 4 4 4 3 3 3 3 2 2 2 2 3 3 3 3 3 4 4 3 1 1 1 1 1 1 2 2 2 2 3 3 5 6 6 5
6 4 5 5 4 4 4 4 3 2 2 2 2 1 1 1 2 2 2 3 2 2 2 2 3 4 4 3 1 1 1 1 1 1 1 2 2 2 2 2 2 2 3 4
6 6 6 5 3 3 2 2 2 2 2 2 1 1 1 1 2 3 3 2 2 2 2 2 3 4 4 2 1 0 1 1 1 1 1 2 2 2 2 3 3 2 2 2
4 4 4 4 5 3 2 2 2 3 3 2 2 2 2 2 2 2 2 1 1 2 2 2 3 3 3 2 1 1 0 1 1 2 2 2 2 2 2 2 2 2 1 1
4 5 5 5 6 5 4 4 4 4 3 3 3 2 1 1 1 2 2 2 1 2 2 2 2 3 2 2 1 1 1 1 2 2 2 2 2 2 2 2 2 1 1 0
7 8 7 6 6 5 5 4 4 4 3 3 2 1 1 1 1 2 2 2 2 3 3 2 2 2 2 2 1 1 1 1 2 2 2 2 2 2 2 2 2 1 1 1
6 6 6 5 5 5 4 4 4 3 3 2 2 2 2 2 2 1 1 1 1 2 3 3 3 3 2 2 2 1 2 2 2 2 2 2 2 2 2 2 1 1 1 0
5 4 4 4 3 3 3 3 3 2 2 2 2 2 1 1 1 1 0 1 2 2 2 2 2 2 1 1 1 1 2 2 2 2 2 2 2 1 1 1 1 1 1 0
4 3 4 3 3 3 3 3 3 3 2 2 3 3 2 1 1 1 0 2 3 2 2 2 1 1 1 1 1 1 2 2 2 2 2 2 2 1 1 1 1 0 0 0
4 3 4 3 3 2 2 2 3 3 2 2 2 2 2 1 1 1 1 2 2 3 2 1 1 1 1 1 1 1 1 2 1 1 1 1 1 1 1 1 1 0 0 0
3 3 4 4 4 2 1 1 2 3 3 3 3 2 2 2 1 1 2 1 1 2 1 1 1 1 1 1 1 1 2 2 1 1 1 1 1 1 1 0 0 0 1 0
3 3 3 3 3 3 2 2 2 2 2 2 2 2 2 1 1 1 1 2 2 2 1 1 1 1 2 2 2 2 1 1 1 1 1 1 1 1 1 0 0 0 1 1
3 3 3 4 4 3 3 2 2 1 1 1 0 1 1 1 1 1 0 1 1 2 1 2 2 2 2 2 2 1 1 1 1 1 1 1 1 1 0 0 0 0 1 1
4 4 4 4 3 3 3 3 2 2 2 1 0 0 0 0 1 0 0 0 1 1 1 1 2 2 2 2 2 1 1 1 1 1 1 1 1 0 0 0 1 1 1 1
3 3 2 2 2 2 3 3 3 3 3 2 1 1 1 1 1 1 1 1 1 1 1 1 1 1 1 1 1 1 1 1 1 1 1 1 0 0 1 1 1 1 1 1
Wind_Direction
256 261 256 261 268 246 208 214 215 248 261 286 302 304 314 329 344 355 355 357 358 354 349 348 348 346 344 345 347 351 356 328 286 313 40 84 127 141 139 145 151 144 138 137
304 294 286 287 276 250 238 242 244 266 279 286 304 329 331 332 342 345 344 345 346 347 346 342 338 335 337 339 338 343 335 297 326 71 73 81 116 129 129 134 137 136 139 142
293 320 356 286 253 218 224 226 212 239 263 311 324 322 314 310 317 322 330 336 337 335 331 327 325 327 326 325 331 338 325 317 45 88 89 90 118 123 134 137 134 134 138 142
319 12 262 255 275 216 235 257 247 261 292 299 292 299 294 281 293 316 327 327 326 325 327 326 327 333 331 334 340 339 336 327 63 104 107 96 109 130 137 137 144 142 141 142
112 282 282 292 271 194 225 280 266 259 286 304 319 329 320 322 336 313 310 308 310 313 316 322 326 330 338 342 344 343 337 321 293 146 140 122 127 141 137 139 140 137 140 137
138 201 251 267 299 305 78 293 287 251 279 302 347 339 300 331 333 324 327 328 328 330 332 331 328 335 346 342 343 333 325 318 317 143 150 155 154 148 137 137 136 130 125 134
186 228 266 267 292 90 157 265 290 244 262 268 244 245 286 315 321 322 325 329 336 338 336 327 327 340 347 339 327 319 331 343 22 83 127 138 123 135 134 131 122 118 117 114
172 210 256 249 129 184 231 274 273 257 253 257 268 285 299 308 314 323 329 332 339 340 334 330 331 341 342 328 322 332 348 13 45 55 101 119 113 110 122 128 124 120 117 103
201 221 254 202 214 243 240 252 262 259 269 270 283 292 302 309 312 317 320 324 334 334 333 336 334 335 327 320 328 343 9 45 61 60 69 107 119 122 118 124 131 132 131 125
257 263 260 258 260 271 259 255 267 271 269 264 271 284 294 300 309 318 321 324 332 336 337 334 335 337 326 319 323 6 65 77 92 96 85 76 92 117 126 133 136 141 141 139
256 274 296 272 250 258 270 278 282 286 269 258 262 276 278 287 294 302 311 319 326 324 322 325 332 337 335 333 354 81 88 89 88 107 116 99 78 84 116 132 144 146 153 156
236 233 222 257 264 255 259 270 274 278 282 270 246 257 267 275 283 290 302 316 328 328 327 329 336 338 338 344 48 117 105 104 105 112 116 110 98 71 64 87 86 90 100 112
233 241 233 258 271 248 249 265 272 267 260 268 263 245 256 273 289 295 304 310 312 312 319 328 337 338 338 347 34 123 151 141 121 118 122 120 117 112 96 71 72 77 78 81
234 240 260 256 258 264 263 268 273 285 281 271 264 259 259 275 296 293 291 295 299 309 324 333 339 336 337 356 28 81 120 122 117 130 133 135 135 126 121 119 104 81 73 76
231 225 239 260 267 268 269 275 288 293 298 302 287 271 261 267 279 285 292 303 318 330 331 337 340 333 341 2 24 75 124 132 124 124 128 132 130 122 118 119 119 110 87 79
229 233 238 247 252 257 258 249 251 267 273 274 276 277 278 276 282 301 313 317 329 321 321 328 327 328 343 4 24 39 126 150 123 124 128 128 129 127 124 123 122 118 110 80
204 236 238 245 248 248 241 238 239 249 254 254 254 266 294 311 319 322 328 334 325 317 324 326 325 341 357 11 32 47 73 134 123 116 127 137 136 134 133 130 131 133 142 167
221 230 228 226 231 236 241 238 237 239 241 244 241 221 215 217 252 289 313 336 353 351 343 337 346 5 10 17 40 61 91 102 110 115 115 122 123 130 135 134 139 137 118 76
226 229 230 226 221 218 224 227 231 231 232 212 199 216 231 239 246 269 309 351 351 330 327 332 350 14 16 13 47 82 101 107 106 106 109 115 104 110 122 131 137 138 144 113
225 223 216 216 210 206 216 217 208 210 214 196 193 204 233 259 249 245 289 299 290 289 309 329 350 6 8 16 55 87 107 117 124 126 121 127 128 125 127 136 143 145 144 139
217 212 205 204 209 212 209 199 190 202 207 190 193 205 218 247 240 195 224 302 311 315 320 328 355 3 20 38 60 90 109 119 124 132 140 143 141 141 147 150 148 149 143 118
209 202 202 198 196 213 218 196 187 188 186 190 196 189 183 208 232 254 255 256 290 318 337 331 346 357 9 42 74 95 105 118 123 125 128 134 142 150 159 158 159 203 232 228
202 195 194 195 196 197 184 186 188 183 188 196 197 197 198 209 206 210 273 289 296 311 336 325 335 349 24 58 79 91 96 110 118 123 129 134 141 148 160 181 228 247 251 267
195 190 188 173 149 152 187 217 201 188 187 195 206 204 190 188 233 236 249 281 309 322 340 334 348 20 44 62 78 80 82 94 105 108 111 113 115 114 127 164 224 262 262 275
186 177 167 163 174 196 203 183 160 158 155 170 220 223 200 190 203 239 280 297 327 353 1 358 24 41 49 65 74 74 73 85 102 107 108 109 110 109 118 166 256 271 289 286
180 182 189 194 195 191 179 172 176 179 168 173 230 252 190 168 147 119 64 20 22 22 24 20 21 31 49 65 70 64 60 48 42 55 73 78 80 77 14 325 312 297 289 288
163 165 167 175 189 181 174 175 179 186 185 181 190 209 167 134 116 102 80 59 48 45 40 33 36 45 58 66 65 56 51 48 47 52 58 46 15 323 307 309 308 297 287 283
Height
1503 1500 1499 1498 1497 1497 1497 1495 1495 1487 1485 1481 1479 1478 1476 1474 1472 1470 1469 1468 1467 1466 1465 1465 1464 1464 1463 1463 1464 1465 1466 1466 1467 1469 1470 1471 1473 1475 1477 1479 1481 1483 1486 1488
1502 1498 1498 1496 1493 1494 1494 1493 1491 1487 1484 1480 1479 1477 1476 1474 1473 1471 1470 1469 1467 1466 1465 1464 1463 1463 1462 1462 1462 1463 1463 1464 1465 1466 1467 1469 1470 1472 1474 1476 1478 1481 1483 1485
1505 1501 1497 1497 1492 1491 1491 1490 1489 1486 1482 1480 1479 1477 1476 1475 1473 1472 1471 1469 1467 1466 1465 1464 1463 1462 1461 1461 1461 1461 1461 1462 1463 1464 1465 1466 1468 1469 1471 1474 1476 1478 1480 1482
1509 1506 1504 1493 1490 1490 1489 1487 1486 1483 1482 1480 1479 1476 1475 1474 1473 1472 1471 1469 1467 1466 1464 1463 1462 1461 1460 1460 1459 1459 1459 1460 1461 1462 1463 1464 1465 1467 1469 1471 1474 1476 1478 1480
1514 1513 1502 1492 1489 1489 1490 1486 1483 1482 1480 1479 1477 1475 1473 1473 1472 1471 1470 1469 1467 1466 1464 1463 1462 1460 1459 1458 1458 1458 1458 1458 1459 1460 1461 1462 1463 1465 1467 1469 1472 1473 1475 1477
1515 1511 1502 1490 1488 1486 1489 1486 1481 1480 1479 1478 1477 1478 1475 1472 1471 1470 1468 1467 1466 1464 1463 1462 1460 1459 1457 1456 1456 1456 1456 1457 1457 1458 1459 1460 1462 1463 1465 1467 1469 1471 1473 1475
1513 1511 1498 1489 1487 1487 1492 1485 1481 1479 1478 1478 1477 1477 1474 1471 1470 1469 1467 1466 1465 1463 1461 1460 1459 1457 1456 1455 1455 1455 1455 1455 1456 1457 1457 1459 1460 1462 1463 1465 1467 1469 1471 1472
1512 1509 1497 1485 1485 1487 1484 1480 1479 1477 1477 1476 1475 1473 1471 1470 1468 1467 1465 1464 1463 1461 1460 1459 1458 1456 1454 1454 1454 1453 1453 1454 1454 1455 1456 1457 1458 1460 1461 1463 1465 1466 1468 1470
1499 1493 1484 1482 1480 1480 1479 1478 1477 1476 1475 1474 1472 1471 1469 1468 1466 1465 1464 1463 1461 1460 1458 1457 1456 1455 1453 1452 1452 1451 1451 1452 1453 1454 1454 1455 1456 1458 1459 1461 1463 1464 1466 1467
1493 1484 1480 1479 1478 1477 1476 1475 1474 1473 1472 1471 1470 1469 1468 1466 1465 1464 1462 1461 1460 1458 1457 1455 1454 1453 1452 1451 1450 1450 1450 1451 1451 1452 1453 1454 1455 1456 1458 1459 1460 1462 1464 1465
1488 1480 1477 1475 1474 1474 1473 1472 1471 1471 1470 1469 1468 1466 1466 1464 1463 1462 1461 1460 1458 1457 1456 1454 1453 1452 1451 1450 1449 1449 1449 1450 1450 1451 1452 1453 1454 1455 1457 1458 1460 1461 1463 1464
1479 1474 1474 1472 1471 1471 1470 1469 1469 1468 1467 1466 1466 1464 1464 1463 1462 1461 1460 1458 1457 1456 1455 1453 1452 1451 1450 1449 1449 1449 1448 1449 1449 1450 1451 1452 1453 1454 1456 1458 1459 1460 1462 1464
1470 1469 1470 1468 1468 1468 1467 1466 1466 1465 1464 1463 1463 1462 1462 1461 1460 1459 1459 1457 1456 1455 1454 1453 1451 1450 1450 1449 1448 1448 1448 1448 1449 1450 1450 1451 1452 1453 1455 1457 1459 1460 1462 1463
1466 1467 1466 1465 1465 1464 1464 1463 1463 1462 1461 1461 1460 1460 1460 1459 1458 1458 1457 1456 1455 1454 1453 1452 1451 1449 1449 1448 1448 1448 1448 1448 1449 1449 1450 1451 1452 1453 1454 1455 1457 1459 1461 1463
1462 1463 1462 1461 1461 1461 1461 1460 1460 1459 1459 1458 1458 1458 1457 1457 1457 1456 1456 1455 1454 1453 1452 1451 1449 1448 1448 1447 1447 1447 1447 1447 1448 1449 1450 1450 1451 1452 1454 1455 1457 1458 1460 1462
1457 1458 1458 1458 1458 1458 1458 1457 1457 1456 1456 1456 1456 1456 1456 1455 1455 1455 1454 1453 1452 1451 1450 1449 1448 1447 1447 1446 1446 1446 1447 1447 1448 1448 1449 1450 1451 1452 1453 1455 1456 1457 1459 1460
1453 1453 1453 1454 1453 1454 1454 1454 1454 1454 1454 1454 1454 1454 1454 1453 1453 1453 1453 1452 1451 1450 1449 1448 1447 1447 1446 1446 1445 1445 1445 1446 1447 1448 1448 1449 1450 1451 1452 1454 1455 1456 1458 1459
1449 1449 1450 1450 1450 1450 1450 1451 1451 1451 1452 1452 1452 1452 1452 1452 1451 1451 1451 1450 1450 1449 1448 1448 1447 1446 1445 1445 1445 1445 1445 1445 1446 1447 1448 1449 1449 1450 1451 1453 1454 1455 1456 1458
1444 1445 1446 1446 1446 1447 1447 1448 1448 1449 1449 1449 1449 1450 1450 1450 1450 1450 1449 1449 1448 1447 1447 1446 1446 1445 1445 1445 1445 1445 1445 1445 1445 1446 1447 1448 1449 1450 1451 1452 1453 1454 1455 1456
1441 1441 1442 1442 1443 1444 1444 1445 1445 1446 1446 1447 1447 1447 1448 1448 1448 1448 1448 1447 1447 1447 1446 1446 1445 1445 1444 1444 1444 1444 1444 1444 1445 1445 1446 1447 1448 1449 1450 1451 1452 1453 1454 1455
1437 1438 1438 1439 1440 1440 1441 1442 1442 1443 1444 1444 1445 1445 1446 1446 1447 1446 1446 1446 1446 1446 1445 1445 1444 1444 1444 1444 1444 1444 1444 1444 1444 1445 1446 1447 1447 1448 1449 1450 1451 1452 1453 1454
1435 1435 1436 1436 1437 1438 1439 1439 1440 1441 1442 1442 1443 1443 1444 1444 1445 1445 1445 1445 1445 1445 1444 1444 1444 1444 1444 1443 1443 1443 1443 1444 1444 1444 1445 1446 1446 1447 1448 1449 1450 1451 1452 1453
1432 1433 1434 1434 1435 1436 1437 1437 1438 1439 1439 1440 1441 1442 1442 1443 1443 1443 1443 1444 1444 1444 1443 1443 1443 1443 1443 1443 1443 1443 1443 1443 1444 1444 1445 1445 1446 1446 1447 1448 1449 1450 1451 1451
1430 1431 1432 1433 1433 1434 1434 1435 1436 1437 1438 1438 1439 1440 1441 1441 1442 1442 1443 1443 1443 1443 1443 1443 1443 1443 1443 1443 1443 1443 1443 1443 1443 1444 1444 1445 1445 1446 1447 1447 1448 1449 1449 1450
1428 1429 1430 1430 1431 1432 1432 1433 1434 1435 1436 1437 1438 1438 1439 1440 1440 1441 1441 1442 1442 1442 1442 1442 1442 1442 1442 1442 1443 1443 1443 1443 1443 1444 1444 1445 1445 1446 1446 1447 1447 1448 1448 1448
1426 1426 1427 1428 1429 1430 1431 1431 1432 1433 1434 1435 1436 1437 1438 1438 1439 1440 1440 1441 1441 1442 1442 1442 1442 1442 1442 1442 1442 1443 1443 1443 1444 1444 1444 1445 1445 1445 1446 1446 1447 1447 1447 1447
1423 1424 1425 1426 1427 1428 1429 1430 1431 1432 1433 1434 1435 1436 1437 1438 1438 1439 1440 1440 1441 1441 1442 1442 1442 1442 1442 1442 1442 1443 1443 1443 1444 1444 1444 1445 1445 1445 1445 1445 1445 1446 1446 1446